sat.trackr.live / text

‹ back to catalog

BLUEBON

NORAD 62688 · 2025-009CH

PAYLOAD ACTIVE UNKNOWN

§ Identity

Operator
Country
POL
Launch date
2025-01-14
Launch site
AFWTR
Launch vehicle
Mass (kg)
RCS (m²)

External: N2YO · Heavens-Above · Gunter

§ Orbital elements

Epoch: 2026-05-24T18:40:35.168448Z

Period
94.10 min
Inclination
97.3981°
Eccentricity
0.0002952
Mean motion
15.30314710 rev/d
Perigee alt
472.8 km
Apogee alt
476.9 km
Semi-major
6,853.0 km
B*
2.2850e-4
RAAN
227.9455°
Arg perigee
83.3467°
Mean anomaly
276.8109°
Rev number
7,539

§ Raw data

BLUEBON1 62688U 25009CH  26144.77818482  .00006624  00000+0  22850-3 0  99952 62688  97.3981 227.9455 0002952  83.3467 276.8109 15.30314710 75394

JSON: /api/v1/satellites/62688 · /tle

For live sub-satellite position, see the globe view (requires WebGL).

§ Visibility from observer

Set your observer location to see the next 7 days of passes ≥ 10°. The values pass through the URL so the page stays shareable.

No JS? Fill the form by hand. The geolocation button needs JavaScript.

§ Radio — SatNOGS DB

ModeDescriptionDownlinkUplink
FM Mode U - Transmitter 400.650 MHz
FM Telemetry 400.950 MHz

2 transmitters · refreshed weekly from db.satnogs.org